Regional Weather Roundup
Issued by NWS Newport/Morehead, NC

Current Version | Previous Version | Graphics & Text | Print | Product List | Glossary Off
Versions: 1 2 3 4 5 6 7 8 9 10 11 12 13 14 15 16 17 18 19 20 21 22 23 24 25 26 27 28 29 30 31 32 33 34 35 36 37 38 39 40 41 42 43 44 45 46 47 48 49 50

000
ASUS42 KMHX 250325
RWRMHX
WEATHER ROUNDUP FOR EASTERN NORTH CAROLINA
NATIONAL WEATHER SERVICE NEWPORT/MOREHEAD CITY NC
1100 PM EDT TUE MAY 24 2016

NOTE: "FAIR" INDICATES FEW OR NO CLOUDS BELOW 12,000 FEET
WITH NO SIGNIFICANT WEATHER AND/OR OBSTRUCTIONS TO VISIBILITY

NCZ015>017-031-032-045>047-102-103-250400-
NORTH COAST

CITY           SKY/WX    TMP DP  RH WIND       PRES   REMARKS
EDENTON        CLEAR    N/A N/A N/A SW9       30.14R
ELIZABETH CITY CLEAR     64  59  83 SW7       30.11R
KITTY HAWK     CLEAR     68  61  77 SW6       30.12S
MANTEO         PTCLDY    68  64  85 SW9       30.13R

$$

NCZ045>047-081-094-103-104-250400-
CENTRAL COAST

CITY           SKY/WX    TMP DP  RH WIND       PRES   REMARKS
FRISCO         CLEAR     68  62  81 SW10      30.16R

$$

NCZ095-097-098-100-101-250400-
SOUTHERN COAST

CITY           SKY/WX    TMP DP  RH WIND       PRES   REMARKS
BEAUFORT       CLEAR     70  63  78 SW9       30.16R
CEDAR ISLAND   NOT AVBL
JACKSONVILLE   CLEAR     67  57  70 SW9       30.16R
PINEY ISLAND   CLEAR    N/A N/A N/A SW6       30.16
WILMINGTON     CLEAR     67  58  72 SW6       30.18R


$$

NCZ011>013-027>030-043-044-078>080-089-090>093-098-250400-
COASTAL PLAIN

CITY           SKY/WX    TMP DP  RH WIND       PRES   REMARKS
AHOSKIE        CLEAR     59  57  91 CALM      30.12S
CLINTON        CLEAR     67  60  75 CALM      30.17R
ELIZABETHTOWN  CLEAR     68  57  68 S6        30.18R
GOLDSBORO      CLEAR     67  58  71 MISG      30.14R
GREENVILLE     CLEAR     66  59  77 SW5       30.16R
HAVELOCK       CLEAR     65  58  78 SW5       30.17R
KENANSVILLE    CLEAR     62  57  84 CALM      30.18R
KINSTON        CLEAR     64  58  81 S5        30.17R
NEW BERN       CLEAR     65  57  75 SW5       30.17R
RICHLANDS      CLEAR     63  59  87 S3        30.17R
ROCKY MOUNT    CLEAR     61  57  87 S3        30.14R
WASHINGTON     CLEAR     67  58  75 S6        30.15R
WHITEVILLE     CLEAR     65  56  72 CALM      30.18R

$$

AMZ130-135-150-152-154-156-158-170-250-252-270-ANZ085-086-088-633-658-670-250400-
MARINE OBSERVATIONS

STATION/POSITION TIME  TEMP    WIND        PRES    WAVE   SWELL
                       AIR SEA DIR/SP/G            HT/PER HT/PER
                 (UTC) (F)     (DEG/KT/KT) (MB)    (FT/S) (FT/S)
CHESAPEAKE LIGHT 0300   76     190/ 14/ 15 1019.6
64 E VA BEACH    0250   62 56  220/ 10/ 12 1019.2    3/ 9   2/ 9
DUCK             0300   71 61  210/ 13/ 16 1019.2
2 E DUCK         0211      64                N/A     2/ 9
OREGON INLET     0300   69 69  220/ 13/ 15 1020.3
13E OREGON INLT  0300      62                N/A     3/ 9   2/ 9
HATTERAS CG      0300   68 68  230/  8/ 12 1020.8
DIAMOND BUOY     0250   73 80  240/ 17/ 19 1020.8    4/ 9   2/ 9
CAPE LOOKOUT     0300   71     240/  8/ 10 1021.0
BEAUFORT LAB     0300   70 68  230/  5/  8 1020.6
30 SE NEW RVR IN 0255      73                N/A     3/ 5
27 SE WRIGHTSVLE 0308   74 73  250/ 10/ 14 1021.3
5 SE WRIGHTSVLE  NOT AVBL
225 S CAPE HAT   0250   73 78   20/  4/  6 1022.5    4/ 9   5/ 9
41 SE CHARLESTON 0250   76 76  180/ 10/ 10 1021.8    2/ 9   2/ 9

$$




USA.gov is the U.S. government's official web portal to all federal, state and local government web resources and services.